Hourly Weather Kivercy

Today, 22 October, Thursday

Time Temperature Precipitation Wind Pressure Humidity
00:00 +7°C° 0 mm 4 mps 745 mmHg 69%
01:00 +7°C° 0 mm 4 mps 744 mmHg 71%
02:00 +8°C° 0 mm 3 mps 744 mmHg 72%
03:00 +6°C° 0 mm 4 mps 744 mmHg 72%
04:00 +6°C° 0 mm 4 mps 744 mmHg 73%
05:00 +6°C° 0 mm 4 mps 744 mmHg 74%
06:00 +7°C° 0 mm 4 mps 744 mmHg 74%
07:00 +7°C° 0 mm 5 mps 745 mmHg 75%
08:00 +8°C° 0 mm 5 mps 745 mmHg 75%
09:00 +9°C° 0 mm 5 mps 745 mmHg 71%
10:00 +11°C° 0 mm 6 mps 745 mmHg 67%
11:00 +14°C° 0 mm 6 mps 745 mmHg 64%
12:00 +15°C° 0 mm 6 mps 745 mmHg 62%
13:00 +16°C° 0 mm 6 mps 745 mmHg 61%
14:00 +16°C° 0 mm 5 mps 745 mmHg 60%
15:00 +16°C° 0 mm 5 mps 745 mmHg 64%
16:00 +15°C° 0 mm 4 mps 745 mmHg 68%
17:00 +14°C° 0 mm 3 mps 745 mmHg 73%
18:00 +13°C° 0 mm 4 mps 745 mmHg 74%
19:00 +12°C° 0 mm 4 mps 745 mmHg 74%
20:00 +12°C° 0 mm 4 mps 745 mmHg 75%
21:00 +11°C° 0 mm 4 mps 745 mmHg 75%
22:00 +11°C° 0 mm 4 mps 745 mmHg 74%
23:00 +11°C° 0 mm 4 mps 745 mmHg 73%

Tomorrow, 23 October, Friday

Time Temperature Precipitation Wind Pressure Humidity
00:00 +11°C° 0 mm 4 mps 745 mmHg 72%
01:00 +10°C° 0 mm 3 mps 745 mmHg 71%
02:00 +10°C° 0 mm 3 mps 745 mmHg 70%
03:00 +10°C° 0 mm 3 mps 745 mmHg 71%
04:00 +10°C° 0 mm 3 mps 745 mmHg 72%
05:00 +9°C° 0 mm 3 mps 744 mmHg 73%
06:00 +9°C° 0 mm 3 mps 744 mmHg 74%
07:00 +8°C° 0 mm 4 mps 744 mmHg 75%
08:00 +8°C° 0 mm 4 mps 744 mmHg 77%
09:00 +11°C° 0 mm 4 mps 744 mmHg 73%
10:00 +12°C° 0 mm 5 mps 744 mmHg 70%
11:00 +14°C° 0 mm 5 mps 744 mmHg 66%
12:00 +14°C° 0 mm 5 mps 743 mmHg 65%
13:00 +15°C° 0 mm 5 mps 743 mmHg 64%
14:00 +16°C° 0 mm 5 mps 743 mmHg 63%
15:00 +15°C° 0 mm 4 mps 742 mmHg 68%
16:00 +14°C° 0 mm 3 mps 742 mmHg 72%
17:00 +13°C° 0 mm 3 mps 742 mmHg 77%
18:00 +13°C° 0 mm 3 mps 742 mmHg 80%
19:00 +12°C° 0 mm 3 mps 742 mmHg 83%
20:00 +11°C° 0 mm 3 mps 742 mmHg 86%
21:00 +11°C° 0 mm 3 mps 742 mmHg 87%
22:00 +12°C° 0 mm 2 mps 742 mmHg 87%
23:00 +10°C° 0 mm 2 mps 742 mmHg 88%

Day after tomorrow, 24 October, Saturday

Time Temperature Precipitation Wind Pressure Humidity
00:00 +10°C° 0 mm 2 mps 742 mmHg 87%
01:00 +10°C° 0 mm 2 mps 742 mmHg 86%
02:00 +10°C° 0 mm 2 mps 742 mmHg 85%
03:00 +10°C° 0 mm 2 mps 742 mmHg 85%
04:00 +10°C° 0 mm 2 mps 742 mmHg 84%
05:00 +10°C° 0 mm 2 mps 741 mmHg 84%
06:00 +10°C° 0 mm 2 mps 741 mmHg 83%
07:00 +10°C° 0 mm 2 mps 741 mmHg 83%
08:00 +10°C° 0 mm 2 mps 741 mmHg 83%
09:00 +11°C° 0 mm 3 mps 741 mmHg 80%
10:00 +12°C° 0 mm 3 mps 741 mmHg 77%
11:00 +13°C° 0 mm 3 mps 741 mmHg 75%
12:00 +13°C° 0 mm 3 mps 741 mmHg 76%
13:00 +13°C° 0 mm 4 mps 741 mmHg 77%
14:00 +13°C° 0 mm 4 mps 741 mmHg 78%
15:00 +13°C° 0 mm 4 mps 741 mmHg 81%
16:00 +12°C° 0 mm 5 mps 741 mmHg 84%
17:00 +12°C° 0 mm 5 mps 741 mmHg 87%
18:00 +10°C° 0 mm 5 mps 742 mmHg 87%
19:00 +10°C° 0 mm 5 mps 742 mmHg 87%
20:00 +10°C° 0 mm 4 mps 743 mmHg 86%
21:00 +10°C° 0 mm 4 mps 743 mmHg 89%
22:00 +8°C° 0 mm 4 mps 744 mmHg 91%
23:00 +9°C° 0 mm 3 mps 744 mmHg 93%

, 25 October, Sunday

Time Temperature Precipitation Wind Pressure Humidity
00:00 +9°C° 0 mm 3 mps 744 mmHg 94%
01:00 +9°C° 0 mm 3 mps 745 mmHg 95%
02:00 +9°C° 0 mm 3 mps 745 mmHg 95%
03:00 +8°C° 0 mm 3 mps 745 mmHg 96%
04:00 +8°C° 0 mm 3 mps 745 mmHg 96%
05:00 +8°C° 0 mm 3 mps 746 mmHg 97%
06:00 +8°C° 0 mm 2 mps 746 mmHg 96%
07:00 +8°C° 0 mm 2 mps 746 mmHg 96%
08:00 +8°C° 0 mm 2 mps 746 mmHg 95%
09:00 +9°C° 0 mm 2 mps 747 mmHg 87%
10:00 +12°C° 0 mm 2 mps 747 mmHg 79%
11:00 +13°C° 0 mm 2 mps 747 mmHg 71%
12:00 +14°C° 0 mm 2 mps 747 mmHg 68%
13:00 +14°C° 0 mm 1 mps 747 mmHg 64%
14:00 +15°C° 0 mm 1 mps 747 mmHg 61%
15:00 +14°C° 0 mm 1 mps 747 mmHg 65%
16:00 +13°C° 0 mm 1 mps 746 mmHg 69%
17:00 +11°C° 0 mm 0 mps 746 mmHg 73%
18:00 +11°C° 0 mm 1 mps 746 mmHg 76%
19:00 +11°C° 0 mm 1 mps 747 mmHg 78%
20:00 +9°C° 0 mm 2 mps 747 mmHg 80%
21:00 +9°C° 0 mm 2 mps 747 mmHg 82%
22:00 +8°C° 0 mm 2 mps 747 mmHg 84%
23:00 +8°C° 0 mm 2 mps 747 mmHg 86%

25 October, Sunday

Time Temperature Precipitation Wind Pressure Humidity
00:00 +9°C° 0 mm 3 mps 744 mmHg 94%
01:00 +9°C° 0 mm 3 mps 745 mmHg 95%
02:00 +9°C° 0 mm 3 mps 745 mmHg 95%
03:00 +8°C° 0 mm 3 mps 745 mmHg 96%
04:00 +8°C° 0 mm 3 mps 745 mmHg 96%
05:00 +8°C° 0 mm 3 mps 746 mmHg 97%
06:00 +8°C° 0 mm 2 mps 746 mmHg 96%
07:00 +8°C° 0 mm 2 mps 746 mmHg 96%
08:00 +8°C° 0 mm 2 mps 746 mmHg 95%
09:00 +9°C° 0 mm 2 mps 747 mmHg 87%
10:00 +12°C° 0 mm 2 mps 747 mmHg 79%
11:00 +13°C° 0 mm 2 mps 747 mmHg 71%
12:00 +14°C° 0 mm 2 mps 747 mmHg 68%
13:00 +14°C° 0 mm 1 mps 747 mmHg 64%
14:00 +15°C° 0 mm 1 mps 747 mmHg 61%
15:00 +14°C° 0 mm 1 mps 747 mmHg 65%
16:00 +13°C° 0 mm 1 mps 746 mmHg 69%
17:00 +11°C° 0 mm 0 mps 746 mmHg 73%
18:00 +11°C° 0 mm 1 mps 746 mmHg 76%
19:00 +11°C° 0 mm 1 mps 747 mmHg 78%
20:00 +9°C° 0 mm 2 mps 747 mmHg 80%
21:00 +9°C° 0 mm 2 mps 747 mmHg 82%
22:00 +8°C° 0 mm 2 mps 747 mmHg 84%
23:00 +8°C° 0 mm 2 mps 747 mmHg 86%

26 October, Monday

Time Temperature Precipitation Wind Pressure Humidity
00:00 +8°C° 0 mm 3 mps 747 mmHg 88%
01:00 +7°C° 0 mm 3 mps 746 mmHg 89%
02:00 +7°C° 0 mm 3 mps 746 mmHg 90%
03:00 +7°C° 0 mm 3 mps 746 mmHg 91%
04:00 +7°C° 0 mm 3 mps 746 mmHg 92%
05:00 +7°C° 0 mm 3 mps 746 mmHg 93%
06:00 +6°C° 0 mm 4 mps 746 mmHg 93%
07:00 +6°C° 0 mm 4 mps 746 mmHg 93%
08:00 +7°C° 0 mm 4 mps 746 mmHg 93%
09:00 +8°C° 0 mm 5 mps 746 mmHg 86%
10:00 +10°C° 0 mm 5 mps 745 mmHg 80%
11:00 +11°C° 0 mm 6 mps 745 mmHg 74%
12:00 +13°C° 0 mm 6 mps 745 mmHg 72%
13:00 +14°C° 0 mm 6 mps 745 mmHg 69%
14:00 +14°C° 0 mm 6 mps 745 mmHg 66%
15:00 +14°C° 0 mm 6 mps 744 mmHg 69%
16:00 +13°C° 0 mm 5 mps 744 mmHg 72%
17:00 +12°C° 0 mm 5 mps 744 mmHg 75%
18:00 +10°C° 0 mm 5 mps 744 mmHg 75%
19:00 +10°C° 0 mm 5 mps 744 mmHg 75%
20:00 +10°C° 0 mm 5 mps 744 mmHg 76%
21:00 +10°C° 0 mm 5 mps 744 mmHg 75%
22:00 +10°C° 0 mm 5 mps 744 mmHg 74%
23:00 +10°C° 0 mm 5 mps 744 mmHg 74%

27 October, Tuesday

Time Temperature Precipitation Wind Pressure Humidity
00:00 +10°C° 0 mm 5 mps 743 mmHg 75%
01:00 +10°C° 0 mm 5 mps 743 mmHg 76%
02:00 +10°C° 0 mm 5 mps 743 mmHg 77%
03:00 +9°C° 0 mm 5 mps 743 mmHg 79%
04:00 +9°C° 0 mm 5 mps 743 mmHg 81%
05:00 +9°C° 0 mm 5 mps 743 mmHg 83%
06:00 +10°C° 0 mm 5 mps 744 mmHg 83%
07:00 +10°C° 0 mm 5 mps 744 mmHg 83%
08:00 +10°C° 0 mm 5 mps 744 mmHg 84%
09:00 +12°C° 0 mm 4 mps 744 mmHg 80%
10:00 +13°C° 0 mm 4 mps 744 mmHg 76%
11:00 +14°C° 0 mm 4 mps 744 mmHg 72%
12:00 +15°C° 0 mm 4 mps 744 mmHg 72%
13:00 +15°C° 0 mm 4 mps 744 mmHg 71%
14:00 +17°C° 0 mm 4 mps 744 mmHg 71%
15:00 +16°C° 0 mm 3 mps 744 mmHg 76%
16:00 +14°C° 0 mm 3 mps 744 mmHg 80%
17:00 +13°C° 0 mm 3 mps 744 mmHg 85%
18:00 +12°C° 0 mm 3 mps 745 mmHg 87%
19:00 +12°C° 0 mm 3 mps 745 mmHg 89%
20:00 +11°C° 0 mm 3 mps 745 mmHg 91%
21:00 +11°C° 0 mm 3 mps 745 mmHg 91%
22:00 +12°C° 0 mm 2 mps 745 mmHg 91%
23:00 +12°C° 0 mm 2 mps 745 mmHg 92%
Show more